Powrót do katalogu

COSMOS 1375 DEB

AktywnyLEO
NORAD 17803·DEBRIS·🇷🇺 Russia

Wystrzelony Jun 6, 1982 z Plesetsk Cosmodrome

Loading…

Następne Przeloty (najbliższe 24 godziny)

TLE

ŚwieżeSource: Space-Track

Epoka: Sep 14, 2026, 06:32 UTC

1 17803U 82055AV  26257.27255838  .00000061  00000-0  13419-3 0  9999
2 17803  65.8348   6.1104 0044552 194.1879 190.1546 13.80941723 56191

Śledź COSMOS 1375 DEB w czasie rzeczywistym z AllMySat

Download on the App Store